| time (UTC) | temp C | wind direction | speed KPH | gust KPH | rain 1hr cm | rain 24hr cm | rain mn cm | humidity % | barometer mb |
| 20260506224518 | 12 | 306 | 0.0 | 3.2 | 0.00 | 0.03 | 0.00 | 56 | 1013.6 |
| 20260506223023 | 12 | 304 | 1.6 | 3.2 | 0.00 | 0.03 | 0.00 | 56 | 1013.5 |
| 20260506221526 | 12 | 339 | 0.0 | 3.2 | 0.00 | 0.03 | 0.00 | 56 | 1013.5 |
| 20260506220036 | 12 | 55 | 0.0 | 3.2 | 0.00 | 0.03 | 0.00 | 55 | 1013.0 |
| 20260506214519 | 12 | 288 | 0.0 | 3.2 | 0.00 | 0.03 | 0.00 | 55 | 1012.9 |
| 20260506213022 | 12 | 305 | 1.6 | 4.8 | 0.00 | 0.03 | 0.00 | 55 | 1012.7 |
| 20260506211530 | 12 | 300 | 0.0 | 3.2 | 0.00 | 0.03 | 0.00 | 54 | 1012.6 |
| 20260506210033 | 12 | 288 | 1.6 | 4.8 | 0.00 | 0.03 | 0.00 | 55 | 1012.7 |
| 20260506204516 | 12 | 117 | 0.0 | 3.2 | 0.00 | 0.03 | 0.00 | 54 | 1012.5 |
| 20260506203004 | 13 | 304 | 1.6 | 6.4 | 0.00 | 0.03 | 0.00 | 56 | 1012.3 |
| 20260506201511 | 13 | 317 | 0.0 | 4.8 | 0.00 | 0.03 | 0.00 | 56 | 1012.3 |
| 20260506200007 | 12 | 309 | 0.0 | 4.8 | 0.00 | 0.03 | 0.00 | 57 | 1012.3 |
| 20260506194512 | 12 | 269 | 0.0 | 3.2 | 0.00 | 0.03 | 0.00 | 55 | 1012.4 |
| 20260506193024 | 12 | 315 | 1.6 | 4.8 | 0.00 | 0.03 | 0.00 | 56 | 1012.5 |
| 20260506191504 | 13 | 299 | 1.6 | 4.8 | 0.00 | 0.03 | 0.00 | 56 | 1012.4 |
| 20260506190012 | 14 | 335 | 3.2 | 9.7 | 0.00 | 0.03 | 0.00 | 56 | 1012.0 |
| 20260506184520 | 14 | 301 | 1.6 | 4.8 | 0.00 | 0.03 | 0.00 | 52 | 1012.2 |
| 20260506183016 | 14 | 304 | 1.6 | 4.8 | 0.00 | 0.03 | 0.00 | 54 | 1012.2 |
| 20260506181522 | 14 | 323 | 1.6 | 6.4 | 0.00 | 0.03 | 0.00 | 53 | 1012.3 |
| 20260506180007 | 14 | 305 | 1.6 | 4.8 | 0.00 | 0.03 | 0.00 | 53 | 1012.3 |
| 20260506174521 | 14 | 299 | 1.6 | 4.8 | 0.00 | 0.03 | 0.00 | 54 | 1012.3 |
| 20260506173017 | 15 | 273 | 1.6 | 8.0 | 0.00 | 0.03 | 0.00 | 55 | 1012.3 |
| 20260506171534 | 14 | 315 | 0.0 | 4.8 | 0.00 | 0.03 | 0.00 | 59 | 1012.3 |
| 20260506170005 | 13 | 276 | 0.0 | 4.8 | 0.00 | 0.03 | 0.00 | 59 | 1012.3 |
| 20260506164507 | 13 | 114 | 1.6 | 4.8 | 0.00 | 0.03 | 0.00 | 59 | 1012.5 |
| 20260506163016 | 13 | 303 | 1.6 | 4.8 | 0.00 | 0.03 | 0.00 | 65 | 1012.6 |
| 20260506161520 | 12 | 298 | 1.6 | 6.4 | 0.00 | 0.03 | 0.00 | 64 | 1012.5 |
| 20260506160024 | 12 | 296 | 1.6 | 3.2 | 0.00 | 0.03 | 0.00 | 66 | 1012.1 |
| 20260506154511 | 11 | 300 | 0.0 | 3.2 | 0.00 | 0.03 | 0.00 | 67 | 1012.1 |
| 20260506153012 | 11 | 101 | 1.6 | 6.4 | 0.00 | 0.03 | 0.00 | 70 | 1011.8 |
| 20260506151523 | 11 | 82 | 0.0 | 6.4 | 0.00 | 0.03 | 0.00 | 68 | 1011.8 |
| 20260506150027 | 10 | 296 | 1.6 | 3.2 | 0.00 | 0.03 | 0.00 | 73 | 1011.6 |
| 20260506144528 | 10 | 308 | 0.0 | 3.2 | 0.00 | 0.03 | 0.00 | 75 | 1011.8 |
| 20260506143011 | 10 | 290 | 0.0 | 6.4 | 0.00 | 0.03 | 0.00 | 74 | 1011.4 |
| 20260506141517 | 9 | 98 | 1.6 | 4.8 | 0.00 | 0.03 | 0.00 | 73 | 1011.2 |
| 20260506140027 | 8 | 332 | 0.0 | 3.2 | 0.00 | 0.03 | 0.00 | 78 | 1010.9 |
| 20260506134528 | 8 | 103 | 1.6 | 6.4 | 0.00 | 0.03 | 0.00 | 79 | 1011.0 |
| 20260506133030 | 8 | 123 | 0.0 | 3.2 | 0.00 | 0.03 | 0.00 | 85 | 1010.6 |
| 20260506131517 | 7 | 271 | 0.0 | 3.2 | 0.00 | 0.03 | 0.00 | 87 | 1010.8 |
| 20260506130022 | 7 | 319 | 0.0 | 3.2 | 0.00 | 0.03 | 0.00 | 88 | 1010.8 |
| 20260506124530 | 7 | 320 | 0.0 | 3.2 | 0.00 | 0.03 | 0.00 | 88 | 1010.6 |
| 20260506123028 | 7 | 314 | 0.0 | 3.2 | 0.00 | 0.03 | 0.00 | 89 | 1010.1 |
| 20260506121514 | 7 | 90 | 0.0 | 0.0 | 0.00 | 0.03 | 0.00 | 89 | 1009.7 |
| 20260506120021 | 7 | 78 | 0.0 | 3.2 | 0.00 | 0.03 | 0.00 | 87 | 1009.8 |
| 20260506114534 | 7 | 351 | 0.0 | 3.2 | 0.00 | 0.03 | 0.00 | 89 | 1009.9 |
| 20260506113007 | 7 | 306 | 0.0 | 3.2 | 0.00 | 0.03 | 0.00 | 91 | 1009.2 |
| 20260506111511 | 7 | 96 | 0.0 | 3.2 | 0.00 | 0.03 | 0.00 | 91 | 1008.7 |
| 20260506110020 | 7 | 129 | 0.0 | 3.2 | 0.00 | 0.03 | 0.00 | 91 | 1008.6 |
| 20260506104505 | 7 | 97 | 0.0 | 4.8 | 0.00 | 0.03 | 0.00 | 91 | 1008.7 |
| 20260506103006 | 7 | 113 | 1.6 | 4.8 | 0.00 | 0.03 | 0.00 | 91 | 1008.5 |
| 20260506101508 | 7 | 311 | 0.0 | 3.2 | 0.00 | 0.03 | 0.00 | 92 | 1008.8 |
| 20260506100022 | 7 | 111 | 0.0 | 3.2 | 0.00 | 0.03 | 0.00 | 92 | 1007.4 |
| 20260506094519 | 7 | 326 | 0.0 | 3.2 | 0.00 | 0.03 | 0.00 | 92 | 1007.5 |
| 20260506093003 | 7 | 122 | 0.0 | 3.2 | 0.00 | 0.03 | 0.00 | 91 | 1006.9 |
| 20260506091508 | 7 | 126 | 0.0 | 4.8 | 0.00 | 0.03 | 0.00 | 92 | 1007.6 |
| 20260506090012 | 7 | 110 | 1.6 | 11.3 | 0.00 | 0.03 | 0.00 | 91 | 1007.4 |
| 20260506084520 | 7 | 327 | 1.6 | 9.7 | 0.00 | 0.03 | 0.00 | 91 | 1007.8 |
| 20260506083024 | 7 | 101 | 1.6 | 6.4 | 0.00 | 0.03 | 0.00 | 91 | 1007.7 |
| 20260506081505 | 7 | 73 | 0.0 | 3.2 | 0.00 | 0.03 | 0.00 | 92 | 1007.6 |
| 20260506073022 | 7 | 113 | 1.6 | 6.4 | 0.00 | 0.03 | 0.00 | 92 | 1007.0 |
| 20260506071526 | 7 | 144 | 1.6 | 4.8 | 0.00 | 0.03 | 0.00 | 91 | 1007.1 |
| 20260506061524 | 8 | 352 | 0.0 | 9.7 | 0.00 | 0.03 | 0.00 | 91 | 1007.3 |
| 20260506044520 | 8 | 107 | 0.0 | 3.2 | 0.00 | 0.03 | 0.00 | 91 | 1007.8 |
| 20260506043016 | 8 | 126 | 0.0 | 3.2 | 0.00 | 0.03 | 0.00 | 91 | 1007.5 |
| 20260506041519 | 9 | 132 | 0.0 | 3.2 | 0.00 | 0.03 | 0.00 | 91 | 1007.6 |
| 20260506040025 | 9 | 63 | 0.0 | 3.2 | 0.00 | 0.03 | 0.00 | 91 | 1007.6 |
| 20260506034527 | 9 | 113 | 0.0 | 9.7 | 0.00 | 0.03 | 0.03 | 90 | 1007.8 |
| 20260506033015 | 10 | 222 | 0.0 | 3.2 | 0.00 | 0.03 | 0.03 | 91 | 1008.0 |
| 20260506031529 | 10 | 108 | 0.0 | 3.2 | 0.00 | 0.03 | 0.03 | 91 | 1008.3 |
| 20260506030045 | 10 | 92 | 0.0 | 11.3 | 0.00 | 0.03 | 0.03 | 90 | 1008.6 |
| 20260506024531 | 10 | 119 | 1.6 | 4.8 | 0.00 | 0.03 | 0.03 | 90 | 1008.5 |
| 20260506023030 | 11 | 238 | 0.0 | 6.4 | 0.00 | 0.03 | 0.03 | 89 | 1008.3 |
| 20260506021520 | 11 | 302 | 0.0 | 8.0 | 0.00 | 0.03 | 0.03 | 88 | 1008.3 |
| 20260506020025 | 13 | 298 | 3.2 | 4.8 | 0.00 | 0.03 | 0.03 | 86 | 1008.3 |
| 20260506014525 | 14 | 253 | 1.6 | 3.2 | 0.00 | 0.03 | 0.03 | 91 | 1008.0 |
| 20260506013009 | 14 | 261 | 1.6 | 1.6 | 0.00 | 0.03 | 0.03 | 92 | 1007.7 |
| 20260506011517 | 15 | 233 | 0.0 | 1.6 | 0.00 | 0.03 | 0.03 | 92 | 1007.4 |
| 20260506010024 | 15 | 200 | 0.0 | 3.2 | 0.03 | 0.03 | 0.03 | 93 | 1007.2 |
| 20260506004509 | 14 | 196 | 0.0 | 3.2 | 0.03 | 0.03 | 0.03 | 92 | 1007.1 |
| 20260506003006 | 14 | 244 | 0.0 | 3.2 | 0.03 | 0.03 | 0.03 | 92 | 1007.4 |
| 20260506001512 | 14 | 244 | 0.0 | 3.2 | 0.03 | 0.03 | 0.03 | 92 | 1007.4 |
| 20260506000024 | 14 | 259 | 0.0 | 3.2 | 0.00 | 0.00 | 0.00 | 92 | 1007.4 |
| 20260505234504 | 14 | 227 | 1.6 | 3.2 | 0.00 | 0.00 | 0.00 | 91 | 1007.3 |
| 20260505233008 | 15 | 272 | 0.0 | 3.2 | 0.00 | 0.00 | 0.00 | 91 | 1007.4 |
| 20260505231520 | 15 | 261 | 0.0 | 3.2 | 0.00 | 0.00 | 0.00 | 91 | 1007.7 |
| 20260505230014 | 15 | 262 | 0.0 | 0.0 | 0.00 | 0.00 | 0.00 | 91 | 1007.9 |